MCA1506 KMIA-KATL

Flight info

Callsign MCA1506
Flight time 1h 30m
Altitude 35000
Route FLMGO2 STYMY Q77 SHRKS LAIRI LARZZ JJEDI4
Aircraft B38M/M-SDE1FGHILORVWXY/HB1

Departure

Time 2026-05-07 18:27
Airport Miami International Airport (KMIA)

Arrival

Time 2026-05-07 19:58
Airport Hartsfield Jackson Atlanta International Airport (KATL)
Time Latitude Longitude Altitude Speed Heading
2026-05-07 17:55 25.79825 -80.28321 17 ft 0 kts 177°
2026-05-07 18:17 25.79843 -80.28322 18 ft 4 kts 177°
2026-05-07 18:17 25.79867 -80.28323 18 ft 4 kts 188°
2026-05-07 18:18 25.79885 -80.28311 20 ft 4 kts 250°
2026-05-07 18:18 25.79889 -80.28287 21 ft 1 kts 267°
2026-05-07 18:18 25.79889 -80.28282 19 ft 0 kts 267°
2026-05-07 18:22 25.79889 -80.28288 21 ft 3 kts 274°
2026-05-07 18:22 25.79903 -80.28310 18 ft 9 kts 327°
2026-05-07 18:22 25.80026 -80.28355 19 ft 18 kts 296°
2026-05-07 18:22 25.80029 -80.28484 17 ft 17 kts 268°
2026-05-07 18:23 25.80024 -80.28617 18 ft 18 kts 267°
2026-05-07 18:23 25.80017 -80.28756 19 ft 19 kts 267°
2026-05-07 18:23 25.80012 -80.28891 19 ft 17 kts 268°
2026-05-07 18:23 25.80007 -80.29029 20 ft 19 kts 268°
2026-05-07 18:24 25.80000 -80.29179 19 ft 20 kts 265°
2026-05-07 18:24 25.79993 -80.29321 18 ft 18 kts 267°
2026-05-07 18:24 25.79987 -80.29471 17 ft 21 kts 268°
2026-05-07 18:24 25.79981 -80.29620 17 ft 17 kts 267°
2026-05-07 18:25 25.79975 -80.29754 17 ft 18 kts 267°
2026-05-07 18:25 25.79968 -80.29879 16 ft 14 kts 267°
2026-05-07 18:25 25.79982 -80.29992 16 ft 16 kts 285°
2026-05-07 18:25 25.80019 -80.30107 17 ft 15 kts 316°
2026-05-07 18:26 25.80074 -80.30061 16 ft 13 kts 85°
2026-05-07 18:26 25.80079 -80.29938 15 ft 22 kts 88°
2026-05-07 18:26 25.80093 -80.29594 16 ft 77 kts 87°
2026-05-07 18:26 25.80129 -80.28762 19 ft 134 kts 88°
2026-05-07 18:27 25.80168 -80.27596 139 ft 167 kts 89°
2026-05-07 18:27 25.80264 -80.26262 634 ft 179 kts 84°
2026-05-07 18:27 25.80394 -80.24856 1145 ft 188 kts 87°
2026-05-07 18:27 25.80462 -80.23408 1785 ft 192 kts 89°
2026-05-07 18:28 25.80503 -80.21823 2113 ft 219 kts 89°
2026-05-07 18:28 25.80549 -80.20047 2553 ft 240 kts 89°
2026-05-07 18:28 25.80879 -80.18155 3064 ft 260 kts 64°
2026-05-07 18:28 25.82070 -80.16605 3609 ft 271 kts 31°
2026-05-07 18:29 25.83830 -80.15948 4443 ft 270 kts
2026-05-07 18:29 25.85727 -80.15878 5266 ft 275 kts
2026-05-07 18:29 25.87630 -80.15803 6030 ft 278 kts
2026-05-07 18:29 25.89593 -80.15856 6748 ft 282 kts 348°
2026-05-07 18:30 25.91483 -80.16484 7447 ft 285 kts 343°
2026-05-07 18:30 25.93395 -80.17136 8112 ft 289 kts 343°
2026-05-07 18:30 25.95302 -80.17792 8786 ft 292 kts 343°
2026-05-07 18:30 25.97259 -80.18470 9476 ft 296 kts 343°
2026-05-07 18:31 25.99133 -80.19419 10127 ft 299 kts 323°
2026-05-07 18:31 26.00752 -80.20963 10507 ft 314 kts 319°
2026-05-07 18:31 26.02435 -80.22607 10870 ft 328 kts 319°
2026-05-07 18:31 26.04155 -80.24301 11523 ft 329 kts 318°
2026-05-07 18:32 26.05876 -80.26004 12249 ft 332 kts 318°
2026-05-07 18:32 26.07603 -80.27717 12981 ft 334 kts 318°
2026-05-07 18:32 26.09347 -80.29448 13748 ft 337 kts 318°
2026-05-07 18:32 26.11104 -80.31194 14434 ft 340 kts 318°
2026-05-07 18:33 26.12852 -80.32932 15125 ft 342 kts 318°
2026-05-07 18:33 26.14633 -80.34702 15811 ft 344 kts 318°
2026-05-07 18:33 26.16432 -80.36492 16469 ft 347 kts 317°
2026-05-07 18:33 26.18234 -80.38287 17136 ft 349 kts 317°
2026-05-07 18:34 26.20052 -80.40096 17788 ft 351 kts 317°
2026-05-07 18:34 26.21881 -80.41914 18417 ft 354 kts 319°
2026-05-07 18:34 26.23965 -80.43384 18961 ft 356 kts 333°
2026-05-07 18:34 26.26209 -80.44594 19456 ft 360 kts 332°
2026-05-07 18:35 26.28472 -80.45821 19975 ft 363 kts 332°
2026-05-07 18:35 26.30724 -80.47030 20484 ft 365 kts 332°
2026-05-07 18:35 26.33029 -80.48259 20987 ft 368 kts 332°
2026-05-07 18:35 26.35348 -80.49495 21488 ft 371 kts 332°
2026-05-07 18:36 26.37684 -80.50737 21963 ft 373 kts 332°
2026-05-07 18:36 26.40041 -80.51992 22468 ft 376 kts 331°
2026-05-07 18:36 26.42408 -80.53252 22948 ft 379 kts 331°
2026-05-07 18:36 26.44797 -80.54524 23429 ft 381 kts 331°
2026-05-07 18:37 26.47202 -80.55805 23840 ft 384 kts 331°
2026-05-07 18:37 26.49714 -80.56878 24240 ft 390 kts 341°
2026-05-07 18:37 26.52333 -80.57692 24626 ft 392 kts 340°
2026-05-07 18:37 26.54929 -80.58521 25014 ft 394 kts 340°
2026-05-07 18:38 26.57573 -80.59362 25409 ft 396 kts 340°
2026-05-07 18:38 26.60242 -80.60209 25785 ft 398 kts 340°
2026-05-07 18:38 26.62925 -80.61062 26173 ft 400 kts 340°
2026-05-07 18:38 26.65613 -80.61916 26531 ft 403 kts 340°
2026-05-07 18:39 26.68312 -80.62775 26904 ft 405 kts 340°
2026-05-07 18:39 26.71037 -80.63642 27270 ft 407 kts 340°
2026-05-07 18:39 26.73766 -80.64511 27636 ft 409 kts 340°
2026-05-07 18:39 26.76512 -80.65385 27977 ft 411 kts 340°
2026-05-07 18:40 26.79271 -80.66265 28327 ft 413 kts 340°
2026-05-07 18:40 26.82045 -80.67149 28665 ft 416 kts 339°
2026-05-07 18:40 26.84832 -80.68038 28994 ft 418 kts 339°
2026-05-07 18:40 26.87640 -80.68934 29322 ft 420 kts 339°
2026-05-07 18:41 26.90457 -80.69840 29654 ft 421 kts 338°
2026-05-07 18:41 26.93196 -80.70880 29957 ft 422 kts 336°
2026-05-07 18:41 26.95993 -80.71945 30231 ft 425 kts 336°
2026-05-07 18:41 26.98797 -80.73004 30494 ft 426 kts 336°
2026-05-07 18:42 27.01614 -80.74065 30777 ft 428 kts 336°
2026-05-07 18:42 27.04445 -80.75130 31040 ft 430 kts 336°
2026-05-07 18:42 27.07289 -80.76202 31300 ft 432 kts 336°
2026-05-07 18:42 27.10146 -80.77278 31557 ft 433 kts 336°
2026-05-07 18:43 27.13016 -80.78360 31826 ft 435 kts 336°
2026-05-07 18:43 27.15894 -80.79446 32077 ft 437 kts 336°
2026-05-07 18:43 27.18783 -80.80536 32330 ft 439 kts 336°
2026-05-07 18:43 27.21646 -80.81617 32582 ft 440 kts 336°
2026-05-07 18:44 27.24556 -80.82717 32829 ft 442 kts 336°
2026-05-07 18:44 27.27471 -80.83819 33141 ft 442 kts 336°
2026-05-07 18:44 27.30384 -80.84921 33500 ft 441 kts 336°
2026-05-07 18:44 27.33273 -80.86079 33848 ft 439 kts 335°
2026-05-07 18:45 27.36139 -80.87265 34186 ft 438 kts 335°
2026-05-07 18:45 27.39000 -80.88441 34491 ft 437 kts 335°
2026-05-07 18:45 27.41861 -80.89617 34795 ft 436 kts 335°
2026-05-07 18:45 27.44713 -80.90788 35018 ft 437 kts 335°
2026-05-07 18:46 27.47576 -80.91965 35035 ft 435 kts 335°
2026-05-07 18:46 27.53242 -80.94295 35032 ft 433 kts 335°
2026-05-07 18:47 27.58866 -80.96611 35031 ft 433 kts 335°
2026-05-07 18:47 27.64528 -80.98945 35029 ft 433 kts 335°
2026-05-07 18:48 27.70204 -81.01287 35029 ft 433 kts 335°
2026-05-07 18:48 27.75864 -81.03625 35029 ft 433 kts 335°
2026-05-07 18:49 27.81525 -81.05966 35036 ft 433 kts 334°
2026-05-07 18:49 27.87189 -81.08312 35022 ft 433 kts 334°
2026-05-07 18:50 27.92813 -81.10642 35030 ft 433 kts 334°
2026-05-07 18:50 27.98471 -81.12990 35028 ft 433 kts 334°
2026-05-07 18:51 28.04092 -81.15418 35029 ft 429 kts 329°
2026-05-07 18:51 28.08597 -81.17781 35038 ft 429 kts 330°
2026-05-07 18:52 28.14040 -81.20571 35052 ft 429 kts 330°
2026-05-07 18:52 28.19486 -81.23353 35058 ft 429 kts 330°
2026-05-07 18:53 28.24900 -81.26120 35062 ft 429 kts 330°
2026-05-07 18:53 28.30236 -81.28851 35052 ft 428 kts 330°
2026-05-07 18:54 28.35671 -81.31629 35058 ft 428 kts 330°
2026-05-07 18:54 28.41113 -81.34409 35057 ft 428 kts 330°
2026-05-07 18:55 28.46544 -81.37187 35057 ft 427 kts 330°
2026-05-07 18:55 28.51969 -81.39964 35058 ft 427 kts 330°
2026-05-07 18:56 28.57384 -81.42740 35057 ft 427 kts 329°
2026-05-07 18:56 28.62777 -81.45507 35053 ft 427 kts 329°
2026-05-07 18:57 28.68196 -81.48292 35045 ft 426 kts 329°
2026-05-07 18:57 28.73609 -81.51075 35039 ft 426 kts 329°
2026-05-07 18:58 28.78984 -81.53844 35037 ft 426 kts 329°
2026-05-07 18:58 28.84387 -81.56628 35039 ft 426 kts 329°
2026-05-07 18:59 28.89792 -81.59417 35044 ft 426 kts 329°
2026-05-07 18:59 28.92574 -81.60635 35027 ft 434 kts 340°
2026-05-07 18:59 28.95558 -81.61083 35047 ft 442 kts 347°
2026-05-07 19:00 29.01700 -81.61719 35035 ft 444 kts 347°
2026-05-07 19:00 29.07858 -81.62301 35025 ft 444 kts 348°
2026-05-07 19:01 29.14016 -81.62869 35025 ft 444 kts 348°
2026-05-07 19:01 29.20186 -81.63435 35025 ft 444 kts 347°
2026-05-07 19:02 29.26304 -81.63996 35023 ft 444 kts 347°
2026-05-07 19:02 29.32469 -81.64562 35025 ft 443 kts 347°
2026-05-07 19:03 29.38611 -81.65126 35023 ft 443 kts 347°
2026-05-07 19:03 29.44771 -81.65693 35021 ft 443 kts 347°
2026-05-07 19:04 29.50918 -81.66259 35023 ft 443 kts 347°
2026-05-07 19:04 29.57064 -81.66826 35020 ft 443 kts 347°
2026-05-07 19:05 29.63170 -81.67390 35018 ft 443 kts 347°
2026-05-07 19:05 29.69319 -81.67958 35020 ft 443 kts 347°
2026-05-07 19:06 29.75468 -81.68528 35017 ft 443 kts 347°
2026-05-07 19:06 29.84688 -81.69382 35021 ft 443 kts 347°
2026-05-07 19:07 29.90834 -81.69953 35023 ft 443 kts 347°
2026-05-07 19:07 29.96932 -81.70520 35025 ft 442 kts 347°
2026-05-07 19:08 30.03073 -81.71092 35029 ft 442 kts 347°
2026-05-07 19:08 30.09207 -81.71663 35026 ft 442 kts 347°
2026-05-07 19:09 30.15263 -81.72228 35032 ft 441 kts 346°
2026-05-07 19:09 30.21298 -81.72792 35032 ft 441 kts 346°
2026-05-07 19:10 30.27404 -81.73363 35050 ft 440 kts 346°
2026-05-07 19:10 30.33477 -81.73932 35062 ft 439 kts 346°
2026-05-07 19:11 30.39564 -81.74503 35021 ft 438 kts 346°
2026-05-07 19:11 30.45637 -81.75073 35012 ft 438 kts 346°
2026-05-07 19:12 30.51726 -81.75645 35014 ft 439 kts 346°
2026-05-07 19:12 30.57831 -81.76220 35015 ft 439 kts 347°
2026-05-07 19:13 30.63650 -81.77645 35018 ft 415 kts 327°
2026-05-07 19:13 30.68870 -81.80493 35022 ft 418 kts 327°
2026-05-07 19:14 30.74102 -81.83462 35022 ft 418 kts 326°
2026-05-07 19:14 30.79310 -81.86469 35019 ft 418 kts 326°
2026-05-07 19:15 30.84529 -81.89492 35018 ft 419 kts 326°
2026-05-07 19:15 30.89774 -81.92536 35012 ft 420 kts 326°
2026-05-07 19:16 30.95020 -81.95583 35011 ft 421 kts 326°
2026-05-07 19:16 31.00234 -81.98617 35005 ft 422 kts 326°
2026-05-07 19:17 31.05494 -82.01680 35012 ft 423 kts 326°
2026-05-07 19:17 31.10758 -82.04749 34995 ft 423 kts 326°
2026-05-07 19:18 31.16025 -82.07825 34997 ft 423 kts 326°
2026-05-07 19:18 31.21296 -82.10906 34984 ft 423 kts 326°
2026-05-07 19:19 31.26558 -82.13986 34984 ft 423 kts 326°
2026-05-07 19:19 31.31828 -82.17074 34992 ft 424 kts 326°
2026-05-07 19:20 31.37099 -82.20167 34980 ft 424 kts 326°
2026-05-07 19:20 31.42369 -82.23264 34992 ft 424 kts 326°
2026-05-07 19:21 31.47612 -82.26348 34967 ft 423 kts 326°
2026-05-07 19:21 31.52876 -82.29449 34972 ft 424 kts 326°
2026-05-07 19:22 31.58156 -82.32563 34964 ft 424 kts 326°
2026-05-07 19:22 31.63393 -82.35655 34967 ft 424 kts 326°
2026-05-07 19:23 31.68670 -82.38775 34967 ft 424 kts 326°
2026-05-07 19:23 31.73948 -82.41900 34965 ft 424 kts 326°
2026-05-07 19:24 31.79232 -82.45032 34965 ft 425 kts 325°
2026-05-07 19:24 31.84513 -82.48167 34961 ft 425 kts 325°
2026-05-07 19:25 31.89762 -82.51285 34949 ft 425 kts 325°
2026-05-07 19:25 31.95048 -82.54435 34947 ft 425 kts 323°
2026-05-07 19:26 31.97420 -82.56386 34947 ft 409 kts 310°
2026-05-07 19:26 31.99595 -82.58592 34940 ft 413 kts 312°
2026-05-07 19:26 32.01760 -82.60747 34945 ft 398 kts 311°
2026-05-07 19:26 32.03825 -82.62827 34945 ft 383 kts 311°
2026-05-07 19:27 32.05790 -82.64823 34751 ft 373 kts 310°
2026-05-07 19:27 32.07747 -82.66821 34310 ft 371 kts 310°
2026-05-07 19:27 32.09696 -82.68810 33801 ft 370 kts 310°
2026-05-07 19:27 32.11642 -82.70798 33278 ft 369 kts 310°
2026-05-07 19:28 32.13582 -82.72782 32805 ft 367 kts 310°
2026-05-07 19:28 32.15506 -82.74748 32364 ft 365 kts 310°
2026-05-07 19:28 32.17421 -82.76708 31915 ft 363 kts 310°
2026-05-07 19:28 32.19321 -82.78654 31484 ft 360 kts 310°
2026-05-07 19:29 32.21184 -82.80562 31067 ft 358 kts 310°
2026-05-07 19:29 32.23065 -82.82491 30650 ft 357 kts 310°
2026-05-07 19:29 32.24934 -82.84407 30235 ft 355 kts 310°
2026-05-07 19:29 32.26799 -82.86321 29766 ft 354 kts 310°
2026-05-07 19:30 32.28652 -82.88223 29326 ft 351 kts 310°
2026-05-07 19:30 32.30486 -82.90108 28926 ft 348 kts 310°
2026-05-07 19:30 32.32304 -82.91975 28538 ft 344 kts 309°
2026-05-07 19:30 32.34100 -82.93823 28166 ft 340 kts 309°
2026-05-07 19:31 32.35874 -82.95648 27796 ft 336 kts 309°
2026-05-07 19:31 32.37613 -82.97436 27428 ft 333 kts 309°
2026-05-07 19:31 32.39360 -82.99232 27021 ft 331 kts 309°
2026-05-07 19:31 32.41090 -83.01011 26679 ft 327 kts 309°
2026-05-07 19:32 32.42798 -83.02769 26342 ft 324 kts 309°
2026-05-07 19:32 32.44491 -83.04512 26013 ft 320 kts 309°
2026-05-07 19:32 32.46146 -83.06217 25671 ft 317 kts 309°
2026-05-07 19:32 32.47806 -83.07927 25338 ft 314 kts 309°
2026-05-07 19:33 32.49448 -83.09620 25013 ft 311 kts 308°
2026-05-07 19:33 32.51075 -83.11298 24693 ft 309 kts 308°
2026-05-07 19:33 32.52688 -83.12962 24368 ft 306 kts 308°
2026-05-07 19:33 32.54288 -83.14614 24054 ft 303 kts 308°
2026-05-07 19:34 32.55873 -83.16252 23738 ft 301 kts 308°
2026-05-07 19:34 32.57445 -83.17876 23411 ft 299 kts 308°
2026-05-07 19:34 32.59008 -83.19494 23023 ft 297 kts 308°
2026-05-07 19:34 32.60539 -83.21081 22679 ft 294 kts 308°
2026-05-07 19:35 32.62066 -83.22665 22397 ft 289 kts 308°
2026-05-07 19:35 32.63569 -83.24224 22103 ft 285 kts 308°
2026-05-07 19:35 32.65058 -83.25771 21797 ft 286 kts 308°
2026-05-07 19:35 32.66596 -83.27373 21478 ft 302 kts 308°
2026-05-07 19:36 32.68219 -83.29061 21131 ft 318 kts 309°
2026-05-07 19:36 32.69920 -83.30828 20802 ft 328 kts 309°
2026-05-07 19:36 32.71652 -83.32628 20494 ft 332 kts 309°
2026-05-07 19:36 32.73391 -83.34435 20170 ft 333 kts 309°
2026-05-07 19:37 32.75126 -83.36243 19840 ft 331 kts 309°
2026-05-07 19:37 32.76854 -83.38042 19510 ft 329 kts 309°
2026-05-07 19:37 32.78544 -83.39804 19109 ft 328 kts 309°
2026-05-07 19:37 32.80258 -83.41592 18640 ft 328 kts 309°
2026-05-07 19:38 32.81974 -83.43382 18164 ft 329 kts 309°
2026-05-07 19:38 32.83696 -83.45179 17586 ft 329 kts 309°
2026-05-07 19:38 32.85419 -83.46979 17091 ft 329 kts 309°
2026-05-07 19:38 32.87138 -83.48775 16590 ft 329 kts 310°
2026-05-07 19:39 32.88853 -83.50569 16085 ft 324 kts 310°
2026-05-07 19:39 32.90528 -83.52322 15592 ft 316 kts 310°
2026-05-07 19:39 32.91617 -83.53461 15269 ft 312 kts 310°
2026-05-07 19:39 32.93231 -83.55151 14774 ft 306 kts 310°
2026-05-07 19:40 32.94820 -83.56814 14324 ft 301 kts 311°
2026-05-07 19:40 32.96369 -83.58436 13932 ft 291 kts 311°
2026-05-07 19:40 32.97859 -83.59996 13605 ft 278 kts 311°
2026-05-07 19:40 32.99281 -83.61485 13284 ft 265 kts 310°
2026-05-07 19:41 33.00634 -83.62903 12996 ft 253 kts 310°
2026-05-07 19:41 33.01929 -83.64262 12723 ft 250 kts 310°
2026-05-07 19:41 33.03232 -83.65630 12437 ft 250 kts 310°
2026-05-07 19:41 33.04535 -83.66998 12160 ft 249 kts 310°
2026-05-07 19:42 33.05837 -83.68365 11887 ft 249 kts 310°
2026-05-07 19:42 33.07137 -83.69730 11641 ft 248 kts 311°
2026-05-07 19:42 33.08434 -83.71093 11522 ft 249 kts 311°
2026-05-07 19:42 33.09735 -83.72461 11398 ft 250 kts 311°
2026-05-07 19:43 33.11041 -83.73834 11273 ft 250 kts 311°
2026-05-07 19:43 33.12347 -83.75208 11154 ft 250 kts 311°
2026-05-07 19:43 33.13657 -83.76586 11035 ft 250 kts 311°
2026-05-07 19:43 33.14965 -83.77967 10780 ft 252 kts 311°
2026-05-07 19:44 33.16279 -83.79354 10513 ft 252 kts 311°
2026-05-07 19:44 33.17592 -83.80741 10279 ft 251 kts 311°
2026-05-07 19:44 33.18893 -83.82127 10159 ft 251 kts 309°
2026-05-07 19:44 33.20114 -83.83580 9965 ft 251 kts 308°
2026-05-07 19:45 33.21355 -83.85061 9688 ft 252 kts 309°
2026-05-07 19:45 33.22593 -83.86534 9405 ft 251 kts 309°
2026-05-07 19:45 33.23834 -83.88007 9135 ft 251 kts 309°
2026-05-07 19:45 33.25073 -83.89477 8860 ft 251 kts 309°
2026-05-07 19:46 33.26315 -83.90949 8597 ft 251 kts 309°
2026-05-07 19:46 33.27541 -83.92403 8332 ft 251 kts 309°
2026-05-07 19:46 33.28780 -83.93873 8052 ft 251 kts 310°
2026-05-07 19:46 33.30006 -83.95337 7962 ft 247 kts 309°
2026-05-07 19:47 33.31225 -83.96795 7966 ft 248 kts 309°
2026-05-07 19:47 33.32451 -83.98264 7971 ft 249 kts 309°
2026-05-07 19:47 33.33660 -83.99710 7787 ft 246 kts 310°
2026-05-07 19:47 33.34875 -84.01164 7421 ft 247 kts 310°
2026-05-07 19:48 33.36259 -84.02400 7079 ft 255 kts 330°
2026-05-07 19:48 33.38028 -84.02842 6767 ft 265 kts 351°
2026-05-07 19:48 33.39851 -84.02908 6455 ft 266 kts 352°
2026-05-07 19:48 33.41695 -84.02963 6154 ft 265 kts 352°
2026-05-07 19:49 33.43532 -84.03010 5861 ft 263 kts 353°
2026-05-07 19:49 33.45361 -84.03054 5514 ft 262 kts 353°
2026-05-07 19:49 33.47181 -84.03107 5225 ft 260 kts 353°
2026-05-07 19:49 33.48990 -84.03172 4935 ft 260 kts 353°
2026-05-07 19:50 33.50793 -84.03224 4649 ft 258 kts 353°
2026-05-07 19:50 33.52584 -84.03287 4315 ft 257 kts 353°
2026-05-07 19:50 33.54352 -84.03395 4068 ft 250 kts 345°
2026-05-07 19:50 33.55889 -84.04206 4010 ft 241 kts 320°
2026-05-07 19:51 33.57184 -84.05497 3983 ft 243 kts 315°
2026-05-07 19:51 33.58453 -84.06836 3960 ft 243 kts 315°
2026-05-07 19:51 33.59701 -84.08150 3970 ft 239 kts 315°
2026-05-07 19:51 33.60899 -84.09415 3967 ft 218 kts 313°
2026-05-07 19:52 33.61938 -84.10669 3972 ft 208 kts 310°
2026-05-07 19:52 33.62765 -84.12056 3942 ft 203 kts 288°
2026-05-07 19:52 33.63042 -84.13705 3964 ft 203 kts 275°
2026-05-07 19:52 33.63123 -84.15394 3987 ft 203 kts 272°
2026-05-07 19:53 33.63157 -84.17093 3982 ft 203 kts 271°
2026-05-07 19:53 33.63169 -84.18787 3981 ft 203 kts 270°
2026-05-07 19:53 33.63174 -84.20383 3975 ft 184 kts 270°
2026-05-07 19:53 33.63177 -84.21863 3979 ft 174 kts 270°
2026-05-07 19:54 33.63180 -84.23315 3944 ft 174 kts 270°
2026-05-07 19:54 33.63180 -84.24764 3736 ft 173 kts 270°
2026-05-07 19:54 33.63179 -84.26201 3506 ft 171 kts 271°
2026-05-07 19:54 33.63180 -84.27622 3312 ft 171 kts 271°
2026-05-07 19:55 33.63181 -84.29047 3151 ft 171 kts 271°
2026-05-07 19:55 33.63182 -84.30463 2911 ft 165 kts 271°
2026-05-07 19:55 33.63181 -84.31788 2707 ft 154 kts 272°
2026-05-07 19:55 33.63185 -84.33074 2497 ft 155 kts 271°
2026-05-07 19:56 33.63179 -84.34364 2274 ft 154 kts 274°
2026-05-07 19:56 33.63179 -84.35654 2080 ft 154 kts 273°
2026-05-07 19:56 33.63183 -84.36920 1878 ft 153 kts 272°
2026-05-07 19:56 33.63178 -84.38182 1655 ft 150 kts 273°
2026-05-07 19:57 33.63170 -84.39441 1420 ft 159 kts 276°
2026-05-07 19:57 33.63179 -84.40805 1244 ft 164 kts 275°
2026-05-07 19:57 33.63179 -84.42145 1052 ft 154 kts 274°
2026-05-07 19:57 33.63184 -84.43251 1040 ft 89 kts 270°
2026-05-07 19:58 33.63221 -84.43613 1039 ft 35 kts 295°
2026-05-07 19:58 33.63316 -84.43812 1038 ft 26 kts 296°
2026-05-07 19:58 33.63360 -84.44006 1038 ft 12 kts 274°
2026-05-07 19:58 33.63359 -84.44113 1037 ft 14 kts 269°
2026-05-07 19:59 33.63358 -84.44237 1037 ft 16 kts 269°
2026-05-07 19:59 33.63359 -84.44372 1038 ft 17 kts 270°
2026-05-07 19:59 33.63360 -84.44522 1038 ft 19 kts 271°
2026-05-07 19:59 33.63361 -84.44677 1038 ft 18 kts 270°
2026-05-07 20:00 33.63361 -84.44833 1038 ft 19 kts 270°
2026-05-07 20:00 33.63341 -84.44998 1038 ft 21 kts 254°
2026-05-07 20:00 33.63319 -84.45175 1038 ft 22 kts 273°
2026-05-07 20:00 33.63370 -84.45293 1038 ft 17 kts 347°
2026-05-07 20:01 33.63496 -84.45298 1038 ft 19 kts
2026-05-07 20:01 33.63608 -84.45273 1038 ft 17 kts 47°
2026-05-07 20:01 33.63625 -84.45130 1038 ft 19 kts 90°
2026-05-07 20:01 33.63626 -84.44975 1037 ft 16 kts 81°
2026-05-07 20:02 33.63651 -84.44838 1037 ft 18 kts 77°
2026-05-07 20:02 33.63666 -84.44685 1038 ft 19 kts 89°
2026-05-07 20:02 33.63666 -84.44518 1038 ft 21 kts 89°
2026-05-07 20:02 33.63666 -84.44343 1038 ft 17 kts 90°
2026-05-07 20:03 33.63666 -84.44196 1038 ft 18 kts 90°
2026-05-07 20:03 33.63667 -84.44036 1038 ft 20 kts 90°
2026-05-07 20:03 33.63666 -84.43880 1038 ft 19 kts 90°
2026-05-07 20:03 33.63666 -84.43717 1038 ft 20 kts 90°
2026-05-07 20:04 33.63667 -84.43540 1038 ft 22 kts 90°
2026-05-07 20:04 33.63667 -84.43377 1037 ft 19 kts 90°
2026-05-07 20:04 33.63667 -84.43208 1037 ft 21 kts 90°
2026-05-07 20:04 33.63666 -84.43055 1038 ft 19 kts 90°
2026-05-07 20:05 33.63666 -84.42889 1037 ft 21 kts 90°
2026-05-07 20:05 33.63759 -84.42810 1038 ft 17 kts 359°
2026-05-07 20:05 33.63881 -84.42811 1038 ft 18 kts
2026-05-07 20:05 33.64004 -84.42810 1038 ft 18 kts
2026-05-07 20:06 33.64092 -84.42809 1038 ft 12 kts
2026-05-07 20:06 33.64145 -84.42849 1038 ft 10 kts 291°
2026-05-07 20:06 33.64153 -84.42881 1038 ft 1 kts 284°
2026-05-07 20:06 33.64153 -84.42883 1038 ft 0 kts 285°
2026-05-07 20:07 33.64154 -84.42885 1038 ft 0 kts 285°